This demonstration page uses our WeatherBlox Daily Observations layout. Learn more.

Left ArrowRight Arrow

39.92423, -83.80882

Hourly Observations for November 22, 2015

Temp ( °F °C ) Dew Point ( °F °C ) Humidity (%) Winds ( mph kmh ) Pressure ( in mb ) Visibility ( mi km ) Precip ( " mm )
12:56 am 00:56 Cloudy 33 0.5 29 -1.6 86 86 W 14 22 30.07 1018 10 16.0934 0 0
1:56 am 01:56 Cloudy 32 0 27 -2.7 82 82 W 16 26 30.11 1020 10 16.0934 0 0
2:56 am 02:56 Cloudy 32 0 27 -2.7 82 82 W 9 15 30.12 1020 10 16.0934 0 0
3:56 am 03:56 Cloudy 32 0 28 -2.2 85 85 W 8 13 30.12 1020 10 16.0934 0 0
4:56 am 04:56 Cloudy 32 0 28 -2.2 85 85 W 9 15 30.14 1021 10 16.0934 0 0
5:56 am 05:56 Cloudy with Light Wintry Mix 31 -0.5 28 -2.2 88 88 WNW 9 15 30.16 1021 10 16.0934 0 0.0254
6:22 am 06:22 Cloudy 30 -1 28 -2 93 93 WNW 13 20 30.21 1023 10 16.0934 0 0.0254
6:56 am 06:56 Cloudy 30 -1.1 28 -2.2 92 92 WNW 8 13 30.17 1022 10 16.0934 0 0.0254
7:22 am 07:22 Cloudy 30 -1 27 -3 86 86 WNW 12 19 30.21 1023 10 16.0934 0 0
7:56 am 07:56 Cloudy 29 -1.6 26 -3.3 88 88 WNW 9 15 30.19 1023 10 16.0934 0 0
8:56 am 08:56 Cloudy 28 -2.2 25 -3.8 89 89 W 10 17 30.22 1023 10 16.0934 0 0
9:56 am 09:56 Cloudy 28 -2.2 25 -3.8 89 89 WNW 10 17 30.23 1024 10 16.0934 0 0
10:04 am 10:04 Cloudy 28 -2 25 -4 86 86 W 10 17 30.3 1026 10 16.0934 0 0
10:56 am 10:56 Cloudy 29 -1.6 24 -4.4 81 81 WNW 6 9 30.25 1025 10 16.0934 0 0
11:04 am 11:04 Cloudy 28 -2 23 -5 80 80 NW 7 11 30.3 1026 10 16.0934 0 0
11:08 am 11:08 Cloudy 30 -1 23 -5 75 75 WNW 8 13 30.27 1025 10 16.0934 0 0
11:56 am 11:56 Mostly Sunny 31 -0.5 23 -5 72 72 NW 9 15 30.24 1024 10 16.0934 0 0
12:25 pm 12:25 Mostly Cloudy 34 1 21 -6 60 60 W 13 20 30.27 1025 10 16.0934 0 0
12:35 pm 12:35 Partly Cloudy 34 1 21 -6 60 60 W 9 15 30.27 1025 10 16.0934 0 0
12:56 pm 12:56 Mostly Sunny 32 0 21 -6.1 64 64 W 9 15 30.23 1024 10 16.0934 0 0
1:56 pm 13:56 Sunny 34 1.1 20 -6.6 57 57 WNW 9 15 30.21 1023 10 16.0934 0 0
2:56 pm 14:56 Sunny 34 1.1 18 -7.7 52 52 NW 9 15 30.2 1023 10 16.0934 0 0
3:56 pm 15:56 Sunny 34 1.1 16 -8.8 48 48 WNW 7 11 30.19 1023 10 16.0934 0 0
4:56 pm 16:56 Sunny 31 -0.5 17 -8.3 56 56 WNW 7 11 30.21 1023 10 16.0934 0 0
5:56 pm 17:56 Clear 27 -2.7 16 -8.8 63 63 WNW 3 6 30.22 1023 10 16.0934 0 0
6:56 pm 18:56 Clear 26 -3.3 18 -7.7 72 72 WNW 3 6 30.23 1024 10 16.0934 0 0
7:56 pm 19:56 Clear 24 -4.4 17 -8.3 75 75 Calm 30.24 1024 10 16.0934 0 0
8:56 pm 20:56 Clear 24 -4.4 18 -7.7 78 78 Calm 30.23 1024 10 16.0934 0 0
9:56 pm 21:56 Clear 22 -5.5 18 -7.7 85 85 Calm 30.22 1024 10 16.0934 0 0
10:56 pm 22:56 Clear 20 -6.6 18 -7.7 92 92 Calm 30.22 1023 10 16.0934 0 0
11:56 pm 23:56 Clear 19 -7.2 17 -8.3 92 92 Calm 30.23 1024 10 16.0934 0 0

Powered by AerisWeather